Starlink 30369

operational
NORAD ID: 57781 Int'l Des: 2023-134 Owner: SPXS Country: US Constellation: starlink
LEOCIRCULAR

Über Starlink 30369

Beschreibung wird geladen...

Live-Position

3D-Globus wird geladen...

Nächste Überflüge

Höhenverlauf

Altitude vs Time

uPlot chart will show altitude changes over time

Zweizeiliger Elementsatz

1 57781U 23134L 25259.73894900 -.00000183 00000-0 15129-5 0 9990
2 57781 43.0043 62.7721 0001451 269.4338 90.6338 15.02534128113303
Epoch: 16. Sept. 2025 • Age: 34 hours

Aktueller Status

Höhe 560.0 km
Geschwindigkeit 7.59 km/s
Subsatellitenpunkt 27.17°N, 146.76°E
Startdatum 4. Sept. 2023
Alter 2 years
Typ internet

Technische Details

Klassifizierung Payload
Masse 730.00 kg
Trockenmasse 700.00 kg
Gesamtmasse 730.00 kg
Länge 0.30 m
Durchmesser 4.10 m
Spannweite 29.00 m
Form Box + pan
Hersteller SPXS
Bus-Typ Starlink V2M
Phasenstatus In Orbit
Besitzer/Staat SPXS/US

Große Konstellationen

Loading constellations...